Powrót do katalogu

FENGYUN 1C DEB

AktywnySSO
NORAD 31922·DEBRIS·🇨🇳 China

Wystrzelony May 10, 1999 z Taiyuan Satellite Launch Center

Loading…

Następne Przeloty (najbliższe 24 godziny)

TLE

ŚwieżeSource: Space-Track

Epoka: Sep 14, 2026, 10:46 UTC

1 31922U 99025CLZ 26257.44902042  .00001431  00000-0  11245-2 0  9993
2 31922  98.8263 238.3790 0159871 356.7558 154.2776 13.87623124968391

Śledź FENGYUN 1C DEB w czasie rzeczywistym z AllMySat

Download on the App Store